Regional Weather Roundup
Issued by NWS Grand Forks, ND

Home | Current Version | Previous Version | Text Only | Print | Product List | Glossary On
Versions: 1 2 3 4 5 6 7 8 9 10 11 12 13 14 15 16 17 18 19 20 21 22 23 24 25 26 27 28 29 30 31 32 33 34 35 36 37 38 39 40 41 42 43 44 45 46 47 48 49 50
000
ASUS43 KFGF 191131
RWRFGF
PRAIRIE TO PINES  WEATHER ROUNDUP
NATIONAL WEATHER SERVICE EASTERN NORTH DAKOTA/GRAND FORKS ND
600 AM CDT TUE SEP 19 2017

 **SATELLITE DATA USED TO AUGMENT SKY COVER AT AUTOMATED STATIONS**
 *****  WEATHER ACROSS EASTERN NORTH DAKOTA  *****

CITY           SKY/WX    TMP DP  RH WIND       PRES   REMARKS
GRAND FORKS    CLOUDY    59  59 100 SE10      29.78F FOG
GRAND FRKS AFB CLOUDY    59  59 100 SE9       29.78F FOG
DEVILS LAKE    CLOUDY    58  56  93 SE13      29.72F
FARGO          CLOUDY    61  60  97 SE12      29.78F FOG
WAHPETON ARPT  CLOUDY    61  59  94 SE10      29.79F
$$

 ***** WEATHER ACROSS CENTRAL AND WESTERN NORTH DAKOTA  *****

CITY           SKY/WX    TMP DP  RH WIND       PRES   REMARKS
BISMARCK       FAIR      59  57  93 E13       29.57F
MINOT          FAIR      53  49  86 E10       29.57F
JAMESTOWN      FOG       60  60 100 SE16      29.70F VSB 1
MINOT AFB      MOCLDY    51  48  91 E13       29.56F
GARRISON         N/A     59  51  75 E21       29.51F
WILLISTON      MOCLDY    62  46  55 E8        29.48S
DICKINSON      FAIR      57  51  80 E10       29.45F
HETTINGER      MOCLDY    62  46  55 SE12      29.48F
$$

 *****  OTHER AIRPORT OBSERVATIONS IN OUR AREA  *****

CITY           SKY/WX    TMP DP  RH WIND       PRES   REMARKS
WALHALLA       FAIR     N/A N/A N/A SE9       29.76F HAZE
GRAFTON AIRPOR CLOUDY    57  57 100 SE12      29.79F FOG
VALLEY CITY AR FOG       61  61 100 SE14G20   29.74F VSB 1/4
CANDO          CLOUDY    57  57 100 SE15G22   29.72F
CAVALIER APRT  CLOUDY    57  57 100 SE7       29.78S FOG
GWINNER        FOG       63  63 100 SE12      29.74F VSB 1/2
ROLLA          CLOUDY    54  54 100 SE13G21   29.70F FOG
 ***** THE ABOVE OBSERVATIONS ARE NON NWS ARE NOT QUALITY
       CONTROLLED AND MAY MIS-REPORT RAIN FOR SNOW...
$$

  *****  WEATHER ACROSS NORTHERN MINNESOTA  *****

CITY           SKY/WX    TMP DP  RH WIND       PRES   REMARKS
FLAG ISLAND    CLOUDY    55  54  94 SE13      29.86S
WARROAD        CLOUDY    55  52  88 SE8       29.86S FOG
ROSEAU         CLOUDY    57  52  82 SE8       29.84F HAZE
HALLOCK        CLOUDY    57  57 100 SE10      29.80S FOG
THF RVR FALLS  CLOUDY    56  54  93 SE8       29.84F
BAUDETTE       CLOUDY    54  54 100 SE9       29.89S
WASKISH        CLOUDY    54  54 100 SE3       29.88S FOG
CROOKSTON      CLOUDY    57  55  94 SE10      29.81F FOG
$$
  *****  WEATHER ACROSS CENTRAL AND WEST MINNESOTA  *****

CITY           SKY/WX    TMP DP  RH WIND       PRES   REMARKS
FOSSTON        CLOUDY    54  54 100 SE7       29.85R
BEMIDJI        FOG       54  54 100 SE10      29.87S VSB 1
PARK RAPIDS    FOG       56  54  93 SE9       29.87S VSB 3/4
ELBOW LAKE     CLOUDY    60  60 100 SE6       29.83F FOG
WADENA         FOG       54  54 100 SE10      29.86F VSB 3/4
DETROIT LAKES  CLOUDY    55  55 100 SE9       29.85R FOG
MOORHEAD       CLOUDY    61  59  94 SE9       29.79F FOG
FERGUS FALLS   CLOUDY    61  61 100 SE14      29.81F FOG
MORRIS MN      CLOUDY    63  63 100 SE13      29.82S FOG
STAPLES        CLOUDY    55  55 100 SE3       29.88S FOG
$$
  *****  WEATHER ELSEWHERE ACROSS MINNESOTA  *****

CITY           SKY/WX    TMP DP  RH WIND       PRES   REMARKS
DULUTH         CLOUDY    55  55 100 SE9       29.94F FOG
INTRNTL FALLS  CLOUDY    53  51  93 SE6       29.91S
ELY            CLOUDY    55  52  88 SE6       29.95S
CLOQUET        CLOUDY    55  54  94 E5        29.94S FOG
WHEATON        CLOUDY    63  61  94 SE13      29.80F FOG
BRAINERD       CLOUDY    56  55  97 SE6       29.90S FOG
HIBBING        CLOUDY    53  53 100 SE7       29.93F FOG
ALEXANDRIA     FOG       58  58 100 SE12      29.87S VSB 1/2
SAINT CLOUD    CLOUDY    57  57 100 SE6       29.89F
MINNEAPOLIS    CLOUDY    60  58  92 SE8       29.91F
$$

  *****  WEATHER ACROSS SOUTH DAKOTA  *****

CITY           SKY/WX    TMP DP  RH WIND       PRES   REMARKS
SIOUX FALLS    CLOUDY    67  66  97 SE12      29.80F FOG
BROOKINGS      CLOUDY    65  64  97 S12       29.81S
WATERTOWN      CLOUDY    64  64 100 S14       29.77F FOG
HURON          CLOUDY    67  65  93 SE15G22   29.72F
SISSETON         N/A     64  64 100 SE10      29.77F
ABERDEEN       CLOUDY    65  64  97 SE15      29.71S
MITCHELL       CLOUDY    67  65  93 SE13      29.74F
PIERRE         FAIR      61  58  90 SE15      29.60F
MOBRIDGE       FAIR      63  58  83 SE15      29.58F
RAPID CITY     NOT AVBL
$$

  *****  SOME WEATHER IN NEARBY STATES *****

CITY           SKY/WX    TMP DP  RH WIND       PRES   REMARKS
GLASGOW MT     CLOUDY    52  47  83 NW8       29.51S
GREAT FALLS MT FAIR      44  33  65 SW10      29.63S
CHEYENNE WY    FAIR      49  34  56 SW6       29.77F
SCOTTSBLUFF NE FAIR      55  48  77 E7        29.68F
OMAHA NE       CLOUDY    68  64  87 SE13      29.82F
DES MOINES IA  FOG       64  64 100 SE6       29.89S VSB 1/4
DAVENPORT IA   CLOUDY    61  60  97 E6        29.97S FOG
CHICAGO IL     CLOUDY    66  64  93 N6        29.94R
EAU CLAIRE WI  CLOUDY    58  55  90 E8        29.96R
LA CROSSE WI   CLOUDY    60  58  92 SE6       29.95S
$$

  *****  SOME NATIONAL WEATHER *****

CITY           SKY/WX    TMP DP  RH WIND       PRES   REMARKS
LA GUARDIA NY  CLOUDY    71  67  87 NE15G22   30.01S
RALEIGH NC     MOCLDY    66  65  96 NE3       29.99R
ATLANTA GA     FAIR      66  64  93 NW6       30.01R
NEW ORLEANS LA MOCLDY    76  75  97 CALM      29.98R
OKLAHOMA CITY  FAIR      70  68  93 S12       29.85F
ALBUQUERQUE NM FAIR      66  24  20 SW8       30.07F
SALT LAKE CITY LGT RAIN  60  53  77 NW8       29.76R
LOS ANGELES CA CLOUDY    67  61  81 CALM      29.91F
BOISE ID       CLOUDY    47  44  90 E3        29.83R
SEATTLE WA     MOCLDY    50  47  89 S9        29.69S
$$

*** WEATHER ACROSS MANITOBA...SASKATCHEWAN AND ONTARIO ***
                ***ONTARIO***

CITY           SKY/WX    TMP DP  RH WIND       PRES   REMARKS
GERALDTON      MOCLDY    48  48 100 SE3       30.07R
THUNDER BAY    MOCLDY    55  55 100 E7        30.02S
SIOUX LOOKOUT  MOCLDY    48  48 100 SE5       29.95F
TORONTO        MOCLDY    66  64  94 N9        30.03R
BIG TROUT LK   MOCLDY    36 N/A N/A W2        30.03R
PICKLE LAKE    PTCLDY    36  34  93 SE6       30.01
DRYDEN         CLOUDY    52  50  93 SE8       29.93S
KENORA         DRIZZLE   54  52  94 SE8       29.89F
$$
                *** MANITOBA***

CITY           SKY/WX    TMP DP  RH WIND       PRES   REMARKS
BRANDON        FOG       50  48  93 E12       29.71F VSB 1/2
DAUPHIN        CLEAR     48  48 100 SE10      29.73F
ISLAND LAKE    NOT AVBL
PILOT MOUND      N/A     55  54  94 SE15        N/A
THE PAS        MOCLDY    48  45  87 SE10G18   29.78F
THOMPSON       PTCLDY    32  32 100 E3        29.93S
WINNIPEG       CLOUDY    57  54  88 SE13      29.80S
LYNN LAKE      CLEAR     34  34 100 E3        29.89R
CHURCHILL      MOCLDY    39  37  93 SW5       29.95S
GILLAM         PTCLDY    32  32 100 CALM      29.96S
$$
                ***SASKATCHEWAN***

CITY           SKY/WX    TMP DP  RH WIND       PRES   REMARKS
ESTEVAN        CLOUDY    54  46  76 E12G20    29.53F
KINDERSLEY     LGT RAIN  46  45  93 W14G21    29.48R
LLOYDMINSTER   CLOUDY    52  45  76 SE9       29.43F
PRINCE ALBERT  LGT RAIN  52  46  82 E16G22    29.57F
REGINA         LGT RAIN  57  46  67 SE16      29.54S
YORKTON        PTCLDY    54  50  87 SE18G24   29.63F
N. BATTLEFORD  CLOUDY    50  46  87 SE7       29.47S
LA RONGE       CLOUDY    48  43  81 E12G20    29.68S
SASKATOON      LGT RAIN  57  45  62 SE9       29.49R
SWIFT CURRENT  CLOUDY    48  45  87 W15       29.50R
$$
NOTE: THESE ARE AUTOMATED STATIONS WITH LIMITED QUALITY CONTROL
      "FAIR" INDICATES FEW OR NO CLOUDS BELOW 12,000 FEET WITH NO
      SIGNIFICANT WEATHER AND/OR OBSTRUCTIONS TO VISIBILITY.
      SKY/WX - SKY CONDITION AND SIGNIFICANT WEATHER.
      TMP - AIR TEMPERATURE.    DP   - DEWPOINT TEMPERATURE.
      RH  - RELATIVE HUMIDITY.  PRES - PRESSURE.
      HX  - HEAT INDEX.         WCI  - WIND CHILL INDEX.
$



USA.gov is the U.S. government's official web portal to all federal, state and local government web resources and services.